Tracking 30058 objects as of 9-Dec-2024
HD Live streaming from Space Station
objects crossing your sky now

SSA

Track SSA now!
10-day predictions
SSA is classified as:


NORAD ID: 13844
Int'l Code: 1983-008E
Perigee: 428.7 km
Apogee: 1,566.5 km
Inclination: 63.3 °
Period: 104.9 minutes
Semi major axis: 7368 km
RCS: Unknown
Launch date: February 9, 1983
Source: United States (US)
Launch site: AIR FORCE WESTERN TEST RANGE (AFWTR)
Your satellite tracking list
Your tracking list is empty




NASA's NSSDC Master Catalog

Two Line Element Set (TLE):
1 13844U 83008E   24344.60240690  .00010700  00000-0  11829-2 0  9994
2 13844  63.3037 109.8296 0772043 125.1416 242.4485 13.72536601282568
Source of the keplerian elements: McCants